4704300091,1994,12,20,00,0.014
4704300091,1994,12,20,01,0.017
4704300091,1994,12,20,02,0.016
4704300091,1994,12,20,03,0.017
4704300091,1994,12,20,04,0.02
4704300091,1994,12,20,05,0.019
4704300091,1994,12,20,06,0.015
4704300091,1994,12,20,07,0.013
4704300091,1994,12,20,16,0.034
4704300091,1994,12,20,17,0.033
4704300091,1994,12,20,18,0.032
4704300091,1994,12,20,19,0.031
4704300091,1994,12,20,20,0.029
4704300091,1994,12,20,21,0.028
4704300091,1994,12,20,22,0.026
4704300091,1994,12,20,23,0.024
4704300091,1994,12,21,00,0.021
4704300091,1994,12,21,01,0.019
4704300091,1994,12,21,02,0.017
4704300091,1994,12,21,03,0.016
4704300091,1994,12,21,04,0.016
4704300091,1994,12,21,05,0.017
4704300091,1994,12,21,06,0.019
4704300091,1994,12,21,07,0.021
4704300091,1994,12,21,08,0.022
4704300091,1994,12,21,09,0.023
4704300091,1994,12,21,10,0.024
4704300091,1994,12,21,11,0.028
4704300091,1994,12,21,12,0.033
4704300091,1994,12,21,13,0.034
4704300091,1994,12,21,14,0.034
4704300091,1994,12,21,15,0.033
4704300091,1994,12,21,16,0.034
4704300091,1994,12,21,17,0.014
4704300091,1994,12,21,18,0.007
4704300091,1994,12,21,19,0.009
4704300091,1994,12,21,20,0.013
4704300091,1994,12,21,21,0.02
4704300091,1994,12,21,22,0.022
4704300091,1994,12,21,23,0.025
4704300091,1994,12,22,00,0.026
4704300091,1994,12,22,01,0.027
4704300091,1994,12,22,02,0.026
4704300091,1994,12,22,03,0.014
4704300091,1994,12,22,04,0.015
4704300091,1994,12,22,05,0.016
4704300091,1994,12,22,06,0.014
4704300091,1994,12,22,07,0.014
4704300091,1994,12,22,08,0.015
4704300091,1994,12,22,09,0.016
4704300091,1994,12,22,10,0.021
4704300091,1994,12,22,11,0.029
4704300091,1994,12,22,12,0.036
4704300091,1994,12,22,13,0.038
4704300091,1994,12,22,14,0.037
4704300091,1994,12,22,15,0.037
4704300091,1994,12,22,16,0.035
4704300091,1994,12,22,17,0.033
4704300091,1994,12,22,18,0.028
4704300091,1994,12,22,19,0.009
4704300091,1994,12,22,20,0.012
4704300091,1994,12,22,21,0.018
4704300091,1994,12,22,22,0.016
4704300091,1994,12,22,23,0.013
4704300091,1994,12,23,00,0.013
4704300091,1994,12,23,01,0.012
4704300091,1994,12,23,02,0.01
4704300091,1994,12,23,03,0.008
4704300091,1994,12,23,04,0.008
4704300091,1994,12,23,05,0.009
4704300091,1994,12,23,06,0.01
4704300091,1994,12,23,07,0.011
4704300091,1994,12,23,08,0.014
4704300091,1994,12,23,09,0.017
4704300091,1994,12,23,10,0.018
4704300091,1994,12,23,11,0.022
4704300091,1994,12,23,12,0.018
4704300091,1994,12,23,13,0.014
4704300091,1994,12,23,14,0.016
4704300091,1994,12,23,15,0.017
4704300091,1994,12,23,16,0.017
4704300091,1994,12,23,17,0.016
4704300091,1994,12,23,18,0.015
4704300091,1994,12,23,19,0.012
4704300091,1994,12,23,20,0.009
4704300091,1994,12,23,21,0.007
4704300091,1994,12,23,22,0.007
4704300091,1994,12,23,23,0.007
4704300091,1994,12,24,00,0.008
4704300091,1994,12,24,01,0.009
4704300091,1994,12,24,02,0.014
4704300091,1994,12,24,03,0.017
4704300091,1994,12,24,04,0.018
4704300091,1994,12,24,05,0.018
4704300091,1994,12,24,06,0.019
4704300091,1994,12,24,07,0.018
4704300091,1994,12,24,08,0.017
4704300091,1994,12,24,09,0.019
4704300091,1994,12,24,10,0.02
4704300091,1994,12,24,11,0.02
4704300091,1994,12,24,12,0.021
4704300091,1994,12,24,13,0.023
4704300091,1994,12,24,14,0.018
4704300091,1994,12,24,15,0.021
4704300091,1994,12,24,16,0.022
4704300091,1994,12,24,17,0.017
4704300091,1994,12,24,18,0.014
4704300091,1994,12,24,19,0.016
4704300091,1994,12,24,20,0.02
4704300091,1994,12,24,21,0.018
4704300091,1994,12,24,22,0.017
4704300091,1994,12,24,23,0.024
4704300091,1994,12,25,00,0.024
4704300091,1994,12,25,01,0.023
4704300091,1994,12,25,02,0.022
4704300091,1994,12,25,03,0.022
4704300091,1994,12,25,04,0.024
4704300091,1994,12,25,05,0.025
4704300091,1994,12,25,06,0.022
4704300091,1994,12,25,07,0.02
4704300091,1994,12,25,08,0.021
4704300091,1994,12,25,09,0.022
4704300091,1994,12,25,10,0.025
4704300091,1994,12,25,11,0.024
4704300091,1994,12,25,12,0.024
4704300091,1994,12,25,13,0.025
4704300091,1994,12,25,14,0.024
4704300091,1994,12,25,15,0.023
4704300091,1994,12,25,16,0.019
4704300091,1994,12,25,17,0.021
4704300091,1994,12,25,18,0.022
4704300091,1994,12,25,19,0.023
4704300091,1994,12,25,20,0.025
4704300091,1994,12,25,21,0.025
4704300091,1994,12,25,22,0.022
4704300091,1994,12,25,23,0.021
4704300091,1994,12,26,00,0.023
4704300091,1994,12,26,01,0.023
4704300091,1994,12,26,02,0.022
4704300091,1994,12,26,03,0.021
4704300091,1994,12,26,04,0.02
4704300091,1994,12,26,05,0.019
4704300091,1994,12,26,06,0.017
4704300091,1994,12,26,07,0.017
4704300091,1994,12,26,08,0.018
4704300091,1994,12,26,09,0.019
4704300091,1994,12,26,10,0.02
4704300091,1994,12,26,11,0.023
4704300091,1994,12,26,12,0.027
4704300091,1994,12,26,13,0.028
4704300091,1994,12,26,14,0.026
4704300091,1994,12,26,15,0.021
4704300091,1994,12,26,16,0.011
4704300091,1994,12,26,17,0.009
4704300091,1994,12,26,18,0.009
4704300091,1994,12,26,19,0.016
4704300091,1994,12,26,20,0.018
4704300091,1994,12,26,21,0.019
4704300091,1994,12,26,22,0.016
4704300091,1994,12,26,23,0.016
4704300091,1994,12,27,00,0.016
4704300091,1994,12,27,01,0.015
4704300091,1994,12,27,02,0.012
4704300091,1994,12,27,03,0.012
4704300091,1994,12,27,04,0.009
4704300091,1994,12,27,05,0.009
4704300091,1994,12,27,06,0.009
4704300091,1994,12,27,07,0.01
4704300091,1994,12,27,08,0.012
4704300091,1994,12,27,09,0.014
4704300091,1994,12,27,10,0.019
4704300091,1994,12,27,11,0.024
4704300091,1994,12,27,12,0.026
4704300091,1994,12,27,13,0.025
4704300091,1994,12,27,14,0.028
4704300091,1994,12,27,15,0.024
4704300091,1994,12,27,16,0.021
4704300091,1994,12,27,17,0.013
4704300091,1994,12,27,18,0.004
4704300091,1994,12,27,19,0.007
4704300091,1994,12,27,20,0.011
4704300091,1994,12,27,21,0.011
4704300091,1994,12,27,22,0.011
4704300091,1994,12,27,23,0.012
4704300091,1994,12,28,00,0.015
4704300091,1994,12,28,01,0.017
4704300091,1994,12,28,02,0.02
4704300091,1994,12,28,03,0.026
4704300091,1994,12,28,04,0.026
4704300091,1994,12,28,05,0.025
4704300091,1994,12,28,06,0.024
4704300091,1994,12,28,07,0.026
4704300091,1994,12,28,08,0.025
4704300091,1994,12,28,09,0.023
4704300091,1994,12,28,10,0.027
4704300091,1994,12,28,11,0.028
4704300091,1994,12,28,12,0.011
4704300091,1994,12,28,13,0.03
4704300091,1994,12,28,14,0.04
4704300091,1994,12,28,15,0.025
4704300091,1994,12,28,16,0.032
4704300091,1994,12,28,17,0.036
4704300091,1994,12,28,18,0.031
4704300091,1994,12,28,19,0.03
4704300091,1994,12,28,20,0.029
4704300091,1994,12,28,21,0.027
4704300091,1994,12,28,22,0.024
4704300091,1994,12,28,23,0.017
4704300091,1994,12,29,00,0.005
4704300091,1994,12,29,01,0.004
4704300091,1994,12,29,02,0.003
4704300091,1994,12,29,03,0.004
4704300091,1994,12,29,04,0.003
4704300091,1994,12,29,05,0.004
4704300091,1994,12,29,06,0.004
4704300091,1994,12,29,07,0.004
4704300091,1994,12,29,08,0.007
4704300091,1994,12,29,09,0.008
4704300091,1994,12,29,10,0.011
4704300091,1994,12,29,11,0.012
4704300091,1994,12,29,12,0.015
4704300091,1994,12,29,13,0.015
4704300091,1994,12,29,14,0.016
4704300091,1994,12,29,15,0.015
4704300091,1994,12,29,16,0.012
4704300091,1994,12,29,17,0.012
4704300091,1994,12,29,18,0.012
4704300091,1994,12,29,19,0.011
4704300091,1994,12,29,20,0.012
4704300091,1994,12,29,21,0.012
4704300091,1994,12,29,22,0.011
4704300091,1994,12,29,23,0.011
4704300091,1994,12,30,00,0.009
4704300091,1994,12,30,01,0.007
4704300091,1994,12,30,02,0.007
4704300091,1994,12,30,03,0.005
4704300091,1994,12,30,04,0.005
4704300091,1994,12,30,05,0.004
4704300091,1994,12,30,06,0.003
4704300091,1994,12,30,07,0.004
4704300091,1994,12,30,08,0.006
4704300091,1994,12,30,09,0.006
4704300091,1994,12,30,10,0.009
4704300091,1994,12,30,11,0.01
4704300091,1994,12,30,12,0.011
4704300091,1994,12,30,13,0.013
4704300091,1994,12,30,14,0.011
4704300091,1994,12,30,15,0.008
4704300091,1994,12,30,16,0.003
4704300091,1994,12,30,17,0.002
4704300091,1994,12,30,18,0.004
4704300091,1994,12,30,19,0.016
4704300091,1994,12,30,20,0.024
4704300091,1994,12,30,21,0.031
4704300091,1994,12,30,22,0.033
4704300091,1994,12,30,23,0.029
4704300091,1994,12,31,00,0.028
4704300091,1994,12,31,01,0.025
4704300091,1994,12,31,02,0.022
4704300091,1994,12,31,03,0.02
4704300091,1994,12,31,04,0.018
4704300091,1994,12,31,05,0.017
4704300091,1994,12,31,06,0.015
4704300091,1994,12,31,07,0.015
4704300091,1994,12,31,08,0.015
4704300091,1994,12,31,09,0.015
4704300091,1994,12,31,10,0.015
4704300091,1994,12,31,11,0.015
4704300091,1994,12,31,12,0.016
4704300091,1994,12,31,13,0.015
4704300091,1994,12,31,14,0.015
4704300091,1994,12,31,15,0.015
4704300091,1994,12,31,16,0.015
4704300091,1994,12,31,17,0.014
4704300091,1994,12,31,18,0.013
4704300091,1994,12,31,19,0.012
4704300091,1994,12,31,20,0.011
4704300091,1994,12,31,21,0.01
4704300091,1994,12,31,22,0.009
4704300091,1994,12,31,23,0.01
